Regional Weather Roundup
Issued by NWS Newport/Morehead, NC

Current Version | Previous Version | Graphics & Text | Print | Product List | Glossary Off
Versions: 1 2 3 4 5 6 7 8 9 10 11 12 13 14 15 16 17 18 19 20 21 22 23 24 25 26 27 28 29 30 31 32 33 34 35 36 37 38 39 40 41 42 43 44 45 46 47 48 49 50

000
ASUS42 KMHX 241114
RWRMHX
WEATHER ROUNDUP FOR EASTERN NORTH CAROLINA
NATIONAL WEATHER SERVICE NEWPORT/MOREHEAD CITY NC
700 AM EDT MON JUL 24 2017

NOTE: "FAIR" INDICATES FEW OR NO CLOUDS BELOW 12,000 FEET
WITH NO SIGNIFICANT WEATHER AND/OR OBSTRUCTIONS TO VISIBILITY

NCZ015>017-031-032-045>047-102-103-241200-
NORTH COAST

CITY           SKY/WX    TMP DP  RH WIND       PRES   REMARKS
EDENTON        PTCLDY    77  73  87 SW12      29.88S
ELIZABETH CITY PTCLDY    75  75 100 SW7       29.87R
KITTY HAWK     PTSUNNY   77  74  89 SW7       29.86S
MANTEO         LGT RAIN  77  75  92 W8        29.88S

$$

NCZ045>047-081-094-103-104-241200-
CENTRAL COAST

CITY           SKY/WX    TMP DP  RH WIND       PRES   REMARKS
FRISCO         PTCLDY    78  74  87 W12G20    29.91R

$$

NCZ095-097-098-100-101-241200-
SOUTHERN COAST

CITY           SKY/WX    TMP DP  RH WIND       PRES   REMARKS
BEAUFORT       CLOUDY    81  78  91 SW12      29.92R
CEDAR ISLAND   NOT AVBL
JACKSONVILLE   MOCLDY    79  77  94 SW6       29.91R
PINEY ISLAND   MOSUNNY  N/A N/A N/A SW10      29.91R
WILMINGTON     PTCLDY    79  75  87 SW7       29.92S


$$

NCZ011>013-027>030-043-044-078>080-089-090>093-098-241200-
COASTAL PLAIN

CITY           SKY/WX    TMP DP  RH WIND       PRES   REMARKS
AHOSKIE          N/A     71  70  98 S5        29.86S
CLINTON        CLEAR     71  71 100 CALM      29.92R
ELIZABETHTOWN  NOT AVBL
GOLDSBORO      CLOUDY    74  74 100 SW7       29.88S
GREENVILLE     CLOUDY    73  72  94 SW9       29.90F
HAVELOCK       PTCLDY    79  75  87 SW8       29.92R
KENANSVILLE    CLOUDY    72  72 100 CALM      29.92R FOG
KINSTON        CLOUDY    73  72  94 S8        29.91S
NEW BERN       MOCLDY    78  76  93 SW6       29.92R
RICHLANDS      CLOUDY    77  75  93 SW10      29.92R
ROCKY MOUNT    MOCLDY    72  72 100 S8        29.88R
WASHINGTON     CLEAR     74  72  92 SW6       29.90S
WHITEVILLE     CLOUDY    76  74  95 SW3       29.93R

$$

AMZ130-135-150-152-154-156-158-170-250-252-270-ANZ085-086-088-633-658-670-241200-
MARINE OBSERVATIONS

STATION/POSITION TIME  TEMP    WIND        PRES    WAVE   SWELL
                       AIR SEA DIR/SP/G            HT/PER HT/PER
                 (UTC) (F)     (DEG/KT/KT) (MB)    (FT/S) (FT/S)
CHESAPEAKE LIGHT NOT AVBL
64 E VA BEACH    1050   78 79  240/ 12/ 14 1011.4    4/ 7   3/ 7
DUCK             1048   78 61  240/ 16/ 20 1011.0
2 E DUCK         1100      63                N/A     2/ 9
OREGON INLET     1048          230/ 16/ 20   N/A
13E OREGON INLT  1048      75                N/A     4/ 7   2/10
HATTERAS CG      1048   78 77  240/ 10/ 16 1012.7
DIAMOND BUOY     1050   83 84  240/ 25/ 29 1012.1    8/ 8
CAPE LOOKOUT     1100   80     230/  9/ 12 1013.0
BEAUFORT LAB     1048   80 80  230/  6/ 11 1012.6
30 SE NEW RVR IN 1008   81 81  240/ 19/ 27 1013.2
30 SE NEW RVR IN 1043      81                N/A     8/ 7   2/11
27 SE WRIGHTSVLE 1008   82 83  230/ 19/ 23 1012.8
5 SE WRIGHTSVLE  1008   80 80  230/ 14/ 21 1012.8
225 S CAPE HAT   1050   83 83  220/ 19/ 21 1016.7    5/ 6
41 SE CHARLESTON 1050   81 83  240/ 17/ 21 1014.0    6/ 5   2/ 9

$$




USA.gov is the U.S. government's official web portal to all federal, state and local government web resources and services.